RH
22 22 23 24 24 25 25 27 27 26 25 22 19 15 9 7 5 4 5 4 5 5 4 5 5 5 5 5 5 5 5 5 4 4 4 4 5 5 5 6 6 7
22 22 23 24 24 25 26 26 26 25 23 20 16 11 8 6 5 4 5 4 5 5 5 5 5 6 6 6 6 6 6 5 5 5 4 5 5 5 5 6 6 7
22 22 23 23 24 25 25 25 26 24 21 17 13 9 7 5 5 4 5 5 5 5 5 5 6 7 7 7 7 7 6 6 5 5 5 5 5 5 6 6 6 7
23 23 23 23 24 25 25 25 25 23 18 14 11 9 6 5 5 5 5 5 5 5 6 6 6 7 8 8 8 8 7 7 6 5 5 5 5 5 5 6 6 7
23 24 23 24 24 25 25 24 22 20 17 14 10 8 6 5 5 5 5 5 5 5 6 6 7 8 8 8 9 8 8 7 7 6 5 5 5 5 5 6 6 6
23 24 24 24 25 25 25 23 21 18 15 12 9 7 5 5 5 5 5 5 5 5 6 7 8 8 9 9 9 9 9 8 7 6 6 6 5 5 5 6 6 6
24 25 25 25 25 25 25 23 20 16 13 10 8 6 6 5 5 5 5 5 5 5 6 6 8 9 9 10 10 10 9 9 8 7 6 6 5 5 6 6 6 6
25 25 26 26 26 26 25 23 19 15 11 9 7 6 6 5 6 5 5 6 5 5 6 6 8 8 9 10 10 11 10 9 8 7 7 6 5 5 6 6 7 6
25 26 27 27 27 26 25 22 19 14 10 8 7 6 6 6 6 6 5 6 5 6 6 6 8 8 9 10 10 11 10 9 9 8 7 6 5 5 6 6 7 6
26 27 28 29 28 26 25 22 18 14 10 8 7 6 7 6 6 6 5 6 5 6 7 7 7 8 9 10 10 11 10 9 9 8 7 6 5 5 6 6 7 7
28 29 29 29 28 27 25 22 19 15 11 8 7 6 7 7 6 6 5 6 6 6 7 7 7 8 9 10 11 11 10 9 8 8 7 6 5 5 6 6 7 7
29 30 30 30 29 27 25 23 20 16 11 8 7 7 7 7 6 6 6 6 6 6 7 7 8 8 9 10 11 10 10 9 8 8 7 6 6 6 6 6 7 7
30 32 32 31 30 28 27 25 21 15 11 8 7 7 8 8 7 6 6 6 6 7 7 7 8 9 9 10 10 10 10 9 8 8 7 6 6 6 6 7 7 8
33 34 34 33 32 31 29 25 19 14 9 7 7 7 8 8 7 6 6 6 7 7 7 8 8 8 10 10 10 10 9 9 8 8 7 7 6 6 7 7 7 8
37 37 36 35 35 33 29 23 17 12 9 7 8 8 9 8 7 6 6 7 7 7 7 8 8 8 10 10 10 10 9 9 9 8 8 7 6 6 7 8 8 9
40 39 38 37 36 33 29 22 16 12 8 7 8 9 9 8 6 6 7 7 7 8 8 8 8 9 10 10 10 10 10 10 9 9 9 7 7 7 7 8 9 9
41 40 39 38 36 33 29 22 15 11 8 8 9 9 9 8 7 6 7 7 8 7 8 8 8 9 10 10 10 10 10 10 9 8 8 7 7 7 8 8 9 9
41 39 39 38 37 34 28 20 14 10 8 8 9 10 9 8 7 7 7 8 8 8 8 8 8 9 10 10 10 11 12 12 11 9 8 7 7 8 9 9 9 10
40 39 39 39 38 34 27 20 13 9 8 9 10 10 9 8 7 7 8 8 8 8 8 8 8 9 10 10 10 11 12 13 13 11 9 8 8 9 9 9 10 11
40 40 40 40 39 34 27 19 13 9 9 10 11 10 9 8 8 7 8 8 8 8 8 8 8 9 10 11 11 11 12 13 13 12 10 9 9 9 10 11 12 13
40 41 42 42 40 34 26 18 11 9 10 11 11 11 9 8 8 7 8 8 8 9 9 8 8 9 10 11 11 11 12 13 13 12 11 10 9 10 11 12 13 15
41 42 43 43 40 33 24 16 11 10 11 12 12 11 10 8 8 7 8 8 9 9 9 9 8 9 10 10 10 11 12 13 12 12 11 10 9 10 11 12 14 19
43 44 45 44 40 31 21 14 11 11 12 13 12 11 10 8 8 8 8 8 9 9 9 9 9 9 10 10 10 11 12 12 12 11 11 10 10 10 12 14 19 24
46 47 46 44 38 28 18 13 12 13 13 13 13 11 9 8 8 8 8 8 9 9 9 9 9 9 10 10 10 12 12 12 12 12 11 10 10 12 15 20 25 27
49 49 47 44 35 24 15 13 13 14 14 14 13 11 9 8 8 8 8 8 9 9 9 9 9 9 10 11 11 12 12 12 13 13 11 11 13 17 21 26 28 25
51 50 47 42 31 20 14 14 14 15 15 13 12 10 9 8 8 8 8 8 9 9 9 9 9 9 10 11 12 12 13 13 13 13 13 16 19 23 26 26 24 20
Wind_Speed
26 24 22 21 19 18 17 17 16 15 15 14 14 14 15 15 15 15 15 14 14 14 15 15 15 15 15 15 14 15 15 15 16 17 16 16 16 16 16 17 17 17
27 24 23 21 20 19 19 18 17 16 15 15 14 14 14 15 15 15 15 15 15 15 15 15 15 15 15 14 14 14 14 15 16 17 17 16 17 17 17 18 18 18
27 25 23 22 21 20 19 18 17 16 15 15 15 14 15 15 15 15 15 15 15 16 16 16 16 16 15 14 14 14 14 15 16 17 18 17 17 17 18 18 18 19
27 25 24 23 22 20 19 18 17 16 15 15 15 15 16 15 16 16 16 16 16 17 16 16 17 17 16 16 15 15 15 16 17 18 18 17 18 18 18 19 19 19
27 25 24 23 22 20 19 18 17 16 15 15 16 16 16 16 17 17 17 17 17 17 17 17 18 18 18 17 17 16 16 17 18 19 19 18 18 19 19 19 19 19
28 26 25 24 22 20 19 18 16 16 16 16 16 16 17 17 18 17 17 17 17 17 18 18 19 19 19 19 18 18 17 18 19 20 20 19 18 19 19 20 20 20
29 27 26 24 22 21 19 18 17 16 16 16 16 17 17 18 18 18 18 17 17 18 19 20 20 20 20 20 19 19 19 19 21 21 21 20 19 20 20 20 21 21
30 28 26 24 22 21 19 18 17 16 16 17 17 17 18 18 19 19 18 18 18 19 20 21 21 21 21 22 21 20 20 20 22 23 22 21 20 20 20 21 22 21
30 28 26 24 23 21 19 18 17 17 17 17 18 18 19 19 19 19 19 19 19 20 21 21 21 22 22 23 22 21 21 21 23 24 23 21 21 21 21 22 22 22
30 28 26 25 23 20 19 18 17 17 18 18 18 19 19 19 19 19 19 19 20 21 21 21 21 22 23 23 22 22 22 23 23 24 23 22 21 22 22 22 23 23
30 29 27 24 22 20 19 18 18 18 18 19 19 19 20 20 19 20 20 20 21 21 21 21 22 23 23 23 22 23 23 24 24 24 23 22 22 23 23 23 23 24
31 29 26 24 22 20 19 18 18 18 19 19 20 20 20 20 20 20 20 21 21 21 21 21 22 23 23 22 22 23 24 25 24 24 23 22 23 23 23 24 24 24
31 28 26 23 22 20 19 19 19 19 20 20 21 21 20 20 20 20 21 21 21 21 21 22 22 23 22 22 22 24 25 25 25 25 24 23 23 24 24 25 25 25
30 28 25 23 22 21 20 19 19 20 21 21 22 22 20 20 20 21 21 22 22 21 21 22 22 22 22 22 23 24 25 26 25 25 25 23 23 24 24 25 26 26
30 28 26 24 23 21 20 20 20 21 22 22 22 21 20 21 21 22 22 22 22 21 21 22 22 21 21 22 23 25 25 26 26 25 25 24 24 25 25 26 26 27
30 28 27 25 23 21 21 21 21 22 22 22 22 21 21 21 22 23 23 22 22 22 21 21 21 21 22 23 24 25 26 26 26 26 25 25 25 26 27 26 26 27
31 29 27 25 23 22 22 21 21 22 23 22 22 21 21 22 23 23 23 23 22 22 21 21 21 21 22 23 23 25 27 28 27 27 26 25 26 27 28 27 26 27
31 29 27 25 24 23 22 22 22 23 23 22 22 21 22 23 24 23 23 23 23 22 21 21 21 22 23 23 23 24 26 28 28 28 28 27 27 29 30 29 28 28
31 29 27 25 24 23 22 23 23 23 22 22 22 22 23 24 24 23 23 23 23 22 21 21 22 23 23 23 24 24 25 26 28 29 29 28 29 30 31 30 30 30
31 29 27 25 24 23 23 23 23 23 23 22 22 23 24 24 24 24 23 23 23 22 21 21 22 23 24 23 24 24 24 26 28 29 29 29 30 31 31 31 31 32
31 29 27 25 24 23 24 24 24 23 23 23 23 24 25 25 24 24 23 23 23 23 23 22 22 24 24 24 24 24 25 27 29 30 30 30 30 31 31 31 32 32
30 28 27 25 24 24 24 24 24 24 23 24 25 25 25 25 24 23 23 23 23 24 24 23 22 24 24 24 24 24 26 28 31 31 30 30 31 30 30 31 32 33
29 28 26 25 24 24 24 24 24 24 24 25 26 26 25 24 24 23 24 24 23 24 25 25 24 23 24 24 24 24 27 30 32 32 31 31 31 31 30 31 32 33
28 27 26 24 24 24 24 24 24 25 25 26 27 26 24 24 24 24 23 23 24 24 25 27 25 23 23 24 24 25 28 31 33 33 32 32 32 32 32 33 34 35
28 27 25 24 24 24 24 24 25 25 26 27 27 26 24 24 25 25 24 23 24 26 26 27 26 23 23 24 24 25 28 31 33 34 34 33 33 34 34 35 36 37
27 26 24 24 24 24 24 25 26 26 26 27 26 26 25 25 25 26 25 23 24 26 26 26 26 24 22 23 25 26 28 31 33 34 35 35 35 36 37 37 37 37
Wind_Direction
231 232 233 236 239 242 246 251 255 258 263 266 269 272 275 279 282 283 285 286 289 291 292 293 296 299 303 308 314 317 319 317 311 307 303 300 298 298 298 299 300 300
231 231 232 234 237 241 245 249 254 258 263 267 270 273 276 279 280 281 282 283 285 286 287 289 291 294 298 304 310 314 316 312 307 303 300 297 296 295 295 295 296 297
230 231 232 235 237 240 244 249 254 259 264 270 274 277 278 279 279 278 279 281 281 281 282 284 287 289 293 299 305 310 313 310 305 300 298 296 293 292 291 291 292 294
230 231 233 235 238 240 244 249 254 260 265 271 276 279 279 278 278 277 277 278 277 277 280 282 284 286 290 296 301 307 311 311 306 301 297 294 291 290 288 288 290 291
231 232 233 236 239 242 246 249 255 260 265 270 274 277 278 277 276 276 275 275 274 276 279 280 282 284 288 294 299 305 310 310 307 301 297 294 290 289 288 288 289 290
231 232 233 237 240 242 247 251 255 260 263 268 271 273 275 275 274 273 272 272 274 276 278 278 279 282 287 291 296 302 307 308 306 300 296 293 290 288 289 290 290 291
231 233 233 236 240 243 247 251 255 259 262 267 269 271 272 273 272 271 271 273 275 277 277 277 278 280 284 288 293 299 303 305 303 298 295 293 290 289 289 290 291 292
232 233 234 236 239 243 246 250 255 259 263 266 268 269 270 270 270 270 272 275 276 277 276 275 276 278 280 285 289 295 299 301 299 296 294 293 290 289 289 290 292 293
231 232 234 237 239 243 246 250 255 259 262 265 266 268 269 269 270 271 273 276 277 276 275 274 275 276 278 282 286 291 295 297 296 294 293 293 290 289 290 291 293 295
230 232 234 237 239 242 247 250 254 258 262 265 266 267 269 269 271 272 273 275 275 274 275 275 275 276 277 280 285 289 292 293 293 292 292 292 290 290 292 293 295 296
229 231 234 237 239 242 247 251 255 259 262 265 267 268 269 270 271 272 273 273 273 274 274 274 274 274 276 280 284 287 290 291 291 290 291 291 290 291 293 294 295 297
229 231 233 236 239 243 247 252 257 261 264 267 268 268 269 270 270 271 271 272 272 273 273 273 272 273 276 280 283 286 288 290 290 290 290 290 290 291 293 295 296 297
229 232 234 236 240 243 248 254 259 263 265 266 267 267 267 268 269 269 270 271 271 271 271 270 270 273 277 280 284 287 289 290 290 290 290 290 291 292 293 295 296 297
229 231 233 236 240 245 250 255 259 262 264 265 266 267 268 269 269 270 270 270 270 269 269 269 271 275 279 283 286 288 289 290 289 289 289 290 290 292 293 294 296 297
228 230 233 236 241 246 251 255 259 261 264 265 266 268 269 270 270 270 270 270 270 269 269 271 274 278 282 286 288 290 289 289 289 289 290 291 292 293 293 294 295 295
227 230 233 237 242 246 251 255 259 262 264 265 267 268 269 270 270 270 270 270 269 269 271 273 277 281 285 289 291 291 289 288 288 288 289 291 293 293 292 292 292 293
227 230 234 238 242 247 252 256 259 262 264 265 266 268 269 269 269 269 270 270 269 270 272 275 280 285 288 291 292 291 290 289 288 289 289 291 293 293 293 294 294 295
228 231 234 239 244 248 253 257 260 263 265 265 266 267 268 269 269 269 268 269 270 272 275 278 283 287 290 291 291 290 289 289 290 291 293 295 295 295 296 297 298 299
228 231 235 240 245 251 255 259 263 265 266 266 267 268 269 269 269 268 267 269 272 275 278 281 284 288 290 291 290 288 286 286 287 289 292 295 296 295 296 297 299 301
229 232 236 241 247 253 258 262 265 266 266 267 268 269 269 269 268 267 268 271 275 279 280 281 285 288 290 290 289 286 284 283 283 286 290 293 294 294 296 298 300 301
230 233 237 243 249 254 260 263 265 266 266 267 268 268 269 268 267 268 271 274 277 280 281 282 286 289 290 289 287 285 284 282 282 285 289 291 292 292 295 297 298 298
230 234 238 244 250 256 261 264 266 266 266 267 268 268 268 268 268 270 273 276 278 281 282 284 287 289 289 288 287 285 284 283 284 286 289 290 290 292 295 296 296 296
231 235 240 246 252 258 262 265 266 266 267 268 269 269 270 270 271 272 274 277 279 281 283 285 287 289 289 287 286 285 285 284 286 287 288 289 291 293 295 295 295 294
231 237 242 248 254 260 263 265 266 267 269 269 270 271 272 272 272 272 274 277 280 281 282 285 288 289 288 286 285 285 285 286 287 288 289 291 293 294 295 294 294 295
233 239 245 250 257 262 264 265 266 267 269 269 270 272 272 272 273 275 277 279 280 281 282 285 288 289 286 285 285 285 285 286 286 288 290 293 294 294 294 294 295 296
235 241 248 254 259 262 263 264 266 267 268 269 271 273 274 274 276 278 280 280 279 281 283 286 289 288 285 285 285 285 285 285 286 288 291 293 293 293 293 295 296 297